Time,TemperatureF,DewpointF,PressureIn,WindDirection,WindDirectionDegrees,WindSpeedMPH,WindSpeedGustMPH,Humidity,HourlyPrecipIn,Conditions,Clouds,dailyrainin,SoftwareType,DateUTC
2013-01-30 00:00:00,74.3,63.1,30.15,SE,135,8.1,8.1,68,0.00,CLR,,0.01,WeatherDisplay:10.37,2013-01-30 05:00:00,
2013-01-30 00:03:00,74.3,63.5,30.12,South,180,12.3,12.3,69,0.00,CLR,,0.00,WeatherDisplay:10.37,2013-01-30 05:03:00,
2013-01-30 00:04:00,74.3,63.5,30.12,SE,135,12.7,12.7,69,0.00,CLR,,0.00,WeatherDisplay:10.37,2013-01-30 05:04:00,
2013-01-30 00:09:00,74.3,63.1,30.12,SSW,202,9.2,9.2,68,0.00,CLR,,0.00,WeatherDisplay:10.37,2013-01-30 05:09:00,
2013-01-30 00:14:00,74.3,63.1,30.12,SSW,202,11.5,11.5,68,0.00,CLR,,0.00,WeatherDisplay:10.37,2013-01-30 05:14:00,
2013-01-30 00:20:00,74.3,63.1,30.15,SE,135,10.9,10.9,68,0.00,CLR,,0.00,WeatherDisplay:10.37,2013-01-30 05:20:00,
2013-01-30 00:25:00,74.1,63.3,30.15,SE,125,7.0,12.0,69,0.00,CLR,,0.00,WeatherDisplay:10.37,2013-01-30 05:25:00,
2013-01-30 00:30:00,74.1,63.3,30.15,ESE,112,13.2,13.2,69,0.00,CLR,,0.00,WeatherDisplay:10.37,2013-01-30 05:30:00,
2013-01-30 00:35:00,74.1,63.3,30.15,ENE,68,12.7,12.7,69,0.00,CLR,,0.00,WeatherDisplay:10.37,2013-01-30 05:35:00,
2013-01-30 00:40:00,74.1,63.3,30.15,South,180,16.1,16.1,69,0.00,CLR,,0.00,WeatherDisplay:10.37,2013-01-30 05:40:00,
2013-01-30 00:45:00,74.1,63.3,30.15,SW,225,13.8,13.8,69,0.00,CLR,,0.00,WeatherDisplay:10.37,2013-01-30 05:45:00,
2013-01-30 00:51:00,74.1,63.3,30.15,ESE,112,12.5,12.5,69,0.00,CLR,,0.00,WeatherDisplay:10.37,2013-01-30 05:51:00,
2013-01-30 00:56:00,74.1,62.9,30.15,SE,135,6.9,6.9,68,0.00,CLR,,0.00,WeatherDisplay:10.37,2013-01-30 05:56:00,
2013-01-30 01:01:00,74.1,63.3,30.15,SSE,158,12.7,12.7,69,0.00,CLR,,0.00,WeatherDisplay:10.37,2013-01-30 06:01:00,
2013-01-30 01:06:00,74.1,62.9,30.15,SSE,158,10.4,10.4,68,0.00,CLR,,0.00,WeatherDisplay:10.37,2013-01-30 06:06:00,
2013-01-30 01:11:00,74.1,63.3,30.15,South,180,11.5,11.5,69,0.00,CLR,,0.00,WeatherDisplay:10.37,2013-01-30 06:11:00,
2013-01-30 01:17:00,73.9,63.1,30.15,South,180,12.1,12.1,69,0.00,CLR,,0.00,WeatherDisplay:10.37,2013-01-30 06:17:00,
2013-01-30 01:22:00,73.9,63.1,30.15,SSW,202,13.8,13.8,69,0.00,CLR,,0.00,WeatherDisplay:10.37,2013-01-30 06:22:00,
2013-01-30 01:27:00,73.9,63.1,30.15,South,180,12.7,12.7,69,0.00,CLR,,0.00,WeatherDisplay:10.37,2013-01-30 06:27:00,
2013-01-30 01:32:00,73.9,63.1,30.15,SE,135,9.2,9.2,69,0.00,CLR,,0.00,WeatherDisplay:10.37,2013-01-30 06:32:00,
2013-01-30 01:37:00,73.9,63.1,30.15,SW,225,12.7,12.7,69,0.00,CLR,,0.00,WeatherDisplay:10.37,2013-01-30 06:37:00,
2013-01-30 01:42:00,73.9,63.1,30.15,SSW,202,15.0,15.0,69,0.00,CLR,,0.00,WeatherDisplay:10.37,2013-01-30 06:42:00,
2013-01-30 01:47:00,73.9,63.1,30.15,SSE,158,8.1,8.1,69,0.00,CLR,,0.00,WeatherDisplay:10.37,2013-01-30 06:47:00,
2013-01-30 01:53:00,73.9,63.1,30.15,SE,135,12.1,12.1,69,0.00,CLR,,0.00,WeatherDisplay:10.37,2013-01-30 06:53:00,
2013-01-30 01:58:00,73.9,63.1,30.15,ESE,112,11.5,11.5,69,0.00,CLR,,0.00,WeatherDisplay:10.37,2013-01-30 06:58:00,
2013-01-30 02:03:00,73.9,63.1,30.15,East,90,13.8,13.8,69,0.00,CLR,,0.00,WeatherDisplay:10.37,2013-01-30 07:03:00,
2013-01-30 02:08:00,73.8,63.0,30.15,NE,45,8.5,8.5,69,0.00,CLR,,0.00,WeatherDisplay:10.37,2013-01-30 07:08:00,
2013-01-30 02:13:00,73.8,63.0,30.15,SSE,158,9.2,9.2,69,0.00,CLR,,0.00,WeatherDisplay:10.37,2013-01-30 07:13:00,
2013-01-30 02:18:00,73.8,63.0,30.15,ESE,112,9.2,9.2,69,0.00,CLR,,0.00,WeatherDisplay:10.37,2013-01-30 07:18:00,
2013-01-30 02:24:00,73.8,63.0,30.15,South,180,9.8,9.8,69,0.00,CLR,,0.00,WeatherDisplay:10.37,2013-01-30 07:24:00,
2013-01-30 02:29:00,73.8,63.0,30.15,East,90,9.2,9.2,69,0.00,CLR,,0.00,WeatherDisplay:10.37,2013-01-30 07:29:00,
2013-01-30 02:34:00,73.8,63.0,30.15,SE,135,15.0,15.0,69,0.00,CLR,,0.00,WeatherDisplay:10.37,2013-01-30 07:34:00,
2013-01-30 02:39:00,73.8,63.0,30.15,SSE,158,10.4,10.4,69,0.00,CLR,,0.00,WeatherDisplay:10.37,2013-01-30 07:39:00,
2013-01-30 02:45:00,73.8,63.0,30.15,SE,135,9.2,9.2,69,0.00,CLR,,0.00,WeatherDisplay:10.37,2013-01-30 07:45:00,
2013-01-30 02:50:00,73.8,63.0,30.15,SE,135,11.5,11.5,69,0.00,CLR,,0.00,WeatherDisplay:10.37,2013-01-30 07:50:00,
2013-01-30 02:55:00,73.8,63.0,30.15,East,90,6.9,6.9,69,0.00,CLR,,0.00,WeatherDisplay:10.37,2013-01-30 07:55:00,
2013-01-30 03:00:00,73.6,62.8,30.15,SSW,202,9.0,9.0,69,0.00,CLR,,0.00,WeatherDisplay:10.37,2013-01-30 08:00:00,
2013-01-30 03:05:00,73.6,62.8,30.12,SSE,158,10.9,10.9,69,0.00,CLR,,0.00,WeatherDisplay:10.37,2013-01-30 08:05:00,
2013-01-30 03:10:00,73.6,62.8,30.12,SE,135,5.8,5.8,69,0.00,CLR,,0.00,WeatherDisplay:10.37,2013-01-30 08:10:00,
2013-01-30 03:15:00,73.6,62.8,30.12,SE,141,7.0,13.0,69,0.00,CLR,,0.00,WeatherDisplay:10.37,2013-01-30 08:15:00,
2013-01-30 03:21:00,73.6,62.8,30.12,East,90,10.4,10.4,69,0.00,CLR,,0.00,WeatherDisplay:10.37,2013-01-30 08:21:00,
2013-01-30 03:26:00,73.6,62.8,30.12,East,90,9.2,9.2,69,0.00,CLR,,0.00,WeatherDisplay:10.37,2013-01-30 08:26:00,
2013-01-30 03:31:00,73.6,62.8,30.12,SSW,202,6.9,6.9,69,0.00,CLR,,0.00,WeatherDisplay:10.37,2013-01-30 08:31:00,
2013-01-30 03:36:00,73.6,62.8,30.12,ESE,112,8.5,8.5,69,0.00,CLR,,0.00,WeatherDisplay:10.37,2013-01-30 08:36:00,
2013-01-30 03:41:00,73.6,62.8,30.12,SSE,158,6.2,6.2,69,0.00,CLR,,0.00,WeatherDisplay:10.37,2013-01-30 08:41:00,
2013-01-30 03:46:00,73.6,62.8,30.15,SE,135,10.4,10.4,69,0.00,CLR,,0.00,WeatherDisplay:10.37,2013-01-30 08:46:00,
2013-01-30 03:51:00,73.6,62.8,30.15,WSW,248,16.6,16.6,69,0.00,CLR,,0.00,WeatherDisplay:10.37,2013-01-30 08:51:00,
2013-01-30 03:56:00,73.4,62.6,30.15,SE,135,10.4,10.4,69,0.00,CLR,,0.00,WeatherDisplay:10.37,2013-01-30 08:56:00,
2013-01-30 04:01:00,73.4,62.6,30.12,SSW,202,10.7,10.7,69,0.00,CLR,,0.00,WeatherDisplay:10.37,2013-01-30 09:01:00,
2013-01-30 04:07:00,73.4,63.0,30.12,WSW,248,8.1,8.1,70,0.00,CLR,,0.00,WeatherDisplay:10.37,2013-01-30 09:07:00,
2013-01-30 04:12:00,73.4,63.0,30.12,East,90,12.7,12.7,70,0.00,CLR,,0.00,WeatherDisplay:10.37,2013-01-30 09:12:00,
2013-01-30 04:17:00,73.4,63.0,30.12,ESE,112,13.8,13.8,70,0.00,CLR,,0.00,WeatherDisplay:10.37,2013-01-30 09:17:00,
2013-01-30 04:22:00,73.4,63.0,30.12,South,180,9.8,9.8,70,0.00,CLR,,0.00,WeatherDisplay:10.37,2013-01-30 09:22:00,
2013-01-30 04:27:00,73.4,62.6,30.12,SSE,158,13.8,13.8,69,0.00,CLR,,0.00,WeatherDisplay:10.37,2013-01-30 09:27:00,
2013-01-30 04:33:00,73.4,62.6,30.09,ENE,68,8.1,8.1,69,0.00,CLR,,0.00,WeatherDisplay:10.37,2013-01-30 09:33:00,
2013-01-30 04:38:00,73.4,62.6,30.09,SE,135,9.2,9.2,69,0.00,CLR,,0.00,WeatherDisplay:10.37,2013-01-30 09:38:00,
2013-01-30 04:43:00,73.4,62.6,30.09,SSE,158,13.8,13.8,69,0.00,CLR,,0.00,WeatherDisplay:10.37,2013-01-30 09:43:00,
2013-01-30 04:48:00,73.2,62.8,30.09,SSE,158,6.0,6.0,70,0.00,CLR,,0.00,WeatherDisplay:10.37,2013-01-30 09:48:00,
2013-01-30 04:53:00,73.2,62.8,30.09,ESE,112,8.1,8.1,70,0.00,CLR,,0.00,WeatherDisplay:10.37,2013-01-30 09:53:00,
2013-01-30 04:58:00,73.2,62.4,30.09,NW,315,12.1,12.1,69,0.00,CLR,,0.00,WeatherDisplay:10.37,2013-01-30 09:58:00,
2013-01-30 05:03:00,73.2,62.4,30.09,South,180,11.5,11.5,69,0.00,CLR,,0.00,WeatherDisplay:10.37,2013-01-30 10:03:00,
2013-01-30 05:08:00,73.2,62.8,30.09,SSW,202,13.8,13.8,70,0.00,CLR,,0.00,WeatherDisplay:10.37,2013-01-30 10:08:00,
2013-01-30 05:14:00,73.2,62.8,30.09,ESE,112,10.4,10.4,70,0.00,CLR,,0.00,WeatherDisplay:10.37,2013-01-30 10:14:00,
2013-01-30 05:19:00,73.2,62.4,30.09,SSE,158,6.9,6.9,69,0.00,CLR,,0.00,WeatherDisplay:10.37,2013-01-30 10:19:00,
2013-01-30 05:24:00,73.2,62.4,30.09,South,180,9.8,9.8,69,0.00,CLR,,0.00,WeatherDisplay:10.37,2013-01-30 10:24:00,
2013-01-30 05:29:00,73.0,62.3,30.09,SE,135,11.5,11.5,69,0.00,CLR,,0.00,WeatherDisplay:10.37,2013-01-30 10:29:00,
2013-01-30 05:34:00,73.0,62.3,30.09,SE,135,9.2,9.2,69,0.00,CLR,,0.00,WeatherDisplay:10.37,2013-01-30 10:34:00,
2013-01-30 05:40:00,73.0,62.3,30.09,SE,135,9.2,9.2,69,0.00,CLR,,0.00,WeatherDisplay:10.37,2013-01-30 10:40:00,
2013-01-30 05:45:00,73.0,62.3,30.09,SE,135,10.4,10.4,69,0.00,CLR,,0.00,WeatherDisplay:10.37,2013-01-30 10:45:00,
2013-01-30 05:50:00,73.0,62.3,30.09,South,180,10.4,10.4,69,0.00,CLR,,0.00,WeatherDisplay:10.37,2013-01-30 10:50:00,
2013-01-30 05:55:00,73.0,62.3,30.09,SSE,152,7.0,10.0,69,0.00,CLR,,0.00,WeatherDisplay:10.37,2013-01-30 10:55:00,
2013-01-30 06:00:00,73.0,62.3,30.09,East,90,9.2,9.2,69,0.00,CLR,,0.00,WeatherDisplay:10.37,2013-01-30 11:00:00,
2013-01-30 06:05:00,73.0,62.3,30.09,SE,134,6.0,10.0,69,0.00,CLR,,0.00,WeatherDisplay:10.37,2013-01-30 11:05:00,
2013-01-30 06:10:00,73.0,62.3,30.09,SSE,155,7.0,9.0,69,0.00,CLR,,0.00,WeatherDisplay:10.37,2013-01-30 11:10:00,
2013-01-30 06:15:00,73.0,62.3,30.12,ESE,112,8.1,8.1,69,0.00,CLR,,0.00,WeatherDisplay:10.37,2013-01-30 11:15:00,
2013-01-30 06:21:00,73.0,62.3,30.12,East,90,9.8,9.8,69,0.00,CLR,,0.00,WeatherDisplay:10.37,2013-01-30 11:21:00,
2013-01-30 06:26:00,73.0,62.3,30.12,East,90,12.7,12.7,69,0.00,CLR,,0.00,WeatherDisplay:10.37,2013-01-30 11:26:00,
2013-01-30 06:31:00,73.0,62.3,30.12,SE,146,7.0,13.0,69,0.00,CLR,,0.00,WeatherDisplay:10.37,2013-01-30 11:31:00,
2013-01-30 06:36:00,73.0,62.3,30.12,SSE,158,6.0,6.0,69,0.00,CLR,,0.00,WeatherDisplay:10.37,2013-01-30 11:36:00,
2013-01-30 06:41:00,73.0,62.3,30.12,SE,135,10.4,10.4,69,0.00,CLR,,0.00,WeatherDisplay:10.37,2013-01-30 11:41:00,
2013-01-30 06:46:00,73.0,62.3,30.15,South,180,11.8,11.8,69,0.00,CLR,,0.00,WeatherDisplay:10.37,2013-01-30 11:46:00,
2013-01-30 06:52:00,73.0,61.9,30.15,SSE,158,10.5,10.5,68,0.00,CLR,,0.00,WeatherDisplay:10.37,2013-01-30 11:52:00,
2013-01-30 06:57:00,73.0,62.3,30.15,South,180,9.4,9.4,69,0.00,CLR,,0.00,WeatherDisplay:10.37,2013-01-30 11:57:00,
2013-01-30 07:02:00,73.0,61.9,30.15,SE,135,9.2,9.2,68,0.00,CLR,,0.00,WeatherDisplay:10.37,2013-01-30 12:02:00,
2013-01-30 07:07:00,73.0,62.3,30.15,South,180,9.2,9.2,69,0.00,CLR,,0.00,WeatherDisplay:10.37,2013-01-30 12:07:00,
2013-01-30 07:12:00,73.0,62.3,30.15,SSE,158,10.7,10.7,69,0.00,CLR,,0.00,WeatherDisplay:10.37,2013-01-30 12:12:00,
2013-01-30 07:17:00,73.0,62.3,30.15,South,180,8.1,8.1,69,0.00,CLR,,0.00,WeatherDisplay:10.37,2013-01-30 12:17:00,
2013-01-30 07:22:00,73.0,61.9,30.15,East,90,10.4,10.4,68,0.00,CLR,,0.00,WeatherDisplay:10.37,2013-01-30 12:22:00,
2013-01-30 07:27:00,73.0,61.9,30.15,SSE,158,11.5,11.5,68,0.00,CLR,,0.00,WeatherDisplay:10.37,2013-01-30 12:27:00,
2013-01-30 07:33:00,73.0,62.3,30.12,ENE,68,9.2,9.2,69,0.00,CLR,,0.00,WeatherDisplay:10.37,2013-01-30 12:33:00,
2013-01-30 07:38:00,73.0,62.3,30.12,ESE,112,10.4,10.4,69,0.00,CLR,,0.00,WeatherDisplay:10.37,2013-01-30 12:38:00,
2013-01-30 07:43:00,73.2,62.0,30.12,SE,135,10.0,10.0,68,0.00,CLR,,0.00,WeatherDisplay:10.37,2013-01-30 12:43:00,
2013-01-30 07:48:00,73.2,62.0,30.15,East,90,8.1,8.1,68,0.00,CLR,,0.00,WeatherDisplay:10.37,2013-01-30 12:48:00,
2013-01-30 07:53:00,73.4,62.2,30.15,SE,135,12.8,12.8,68,0.00,CLR,,0.00,WeatherDisplay:10.37,2013-01-30 12:53:00,
2013-01-30 07:58:00,73.4,62.2,30.15,ESE,112,9.0,9.0,68,0.00,CLR,,0.00,WeatherDisplay:10.37,2013-01-30 12:58:00,
2013-01-30 08:03:00,73.4,62.2,30.15,ESE,112,12.7,12.7,68,0.00,CLR,,0.00,WeatherDisplay:10.37,2013-01-30 13:03:00,
2013-01-30 08:08:00,73.4,62.2,30.15,SE,135,12.7,12.7,68,0.00,CLR,,0.00,WeatherDisplay:10.37,2013-01-30 13:08:00,
2013-01-30 08:14:00,73.6,62.4,30.15,East,90,10.4,10.4,68,0.00,CLR,,0.00,WeatherDisplay:10.37,2013-01-30 13:14:00,
2013-01-30 08:19:00,73.8,62.5,30.12,SSE,158,11.5,11.5,68,0.00,CLR,,0.00,WeatherDisplay:10.37,2013-01-30 13:19:00,
2013-01-30 08:24:00,73.8,62.5,30.12,SSE,158,8.5,8.5,68,0.00,CLR,,0.00,WeatherDisplay:10.37,2013-01-30 13:24:00,
2013-01-30 08:29:00,73.9,62.7,30.12,SSE,158,15.0,15.0,68,0.00,CLR,,0.00,WeatherDisplay:10.37,2013-01-30 13:29:00,
2013-01-30 08:34:00,73.9,62.7,30.15,SE,135,12.7,12.7,68,0.00,CLR,,0.00,WeatherDisplay:10.37,2013-01-30 13:34:00,
2013-01-30 08:39:00,74.1,62.9,30.15,SW,225,10.4,10.4,68,0.00,CLR,,0.00,WeatherDisplay:10.37,2013-01-30 13:39:00,
2013-01-30 08:45:00,74.1,62.9,30.15,SE,135,11.5,11.5,68,0.00,CLR,,0.00,WeatherDisplay:10.37,2013-01-30 13:45:00,
2013-01-30 08:50:00,74.1,62.9,30.15,SE,135,10.4,10.4,68,0.00,CLR,,0.00,WeatherDisplay:10.37,2013-01-30 13:50:00,
2013-01-30 08:55:00,74.3,63.1,30.15,SSE,158,12.7,12.7,68,0.00,CLR,,0.00,WeatherDisplay:10.37,2013-01-30 13:55:00,
2013-01-30 09:00:00,74.3,63.1,30.15,SE,135,13.0,13.0,68,0.00,CLR,,0.00,WeatherDisplay:10.37,2013-01-30 14:00:00,
2013-01-30 09:05:00,74.5,63.2,30.12,NE,45,6.9,7.4,68,0.00,CLR,,0.00,WeatherDisplay:10.37,2013-01-30 14:05:00,
2013-01-30 09:10:00,74.7,63.4,30.12,East,90,11.5,11.5,68,0.00,CLR,,0.00,WeatherDisplay:10.37,2013-01-30 14:10:00,
2013-01-30 09:15:00,74.7,63.0,30.12,SSW,202,11.5,11.5,67,0.00,CLR,,0.00,WeatherDisplay:10.37,2013-01-30 14:15:00,
2013-01-30 09:20:00,74.7,63.0,30.15,SE,135,12.7,12.7,67,0.00,CLR,,0.00,WeatherDisplay:10.37,2013-01-30 14:20:00,
2013-01-30 09:25:00,74.7,63.0,30.15,SW,225,8.1,8.1,67,0.00,CLR,,0.00,WeatherDisplay:10.37,2013-01-30 14:25:00,
2013-01-30 09:30:00,74.7,63.0,30.15,SE,135,10.4,10.4,67,0.00,CLR,,0.00,WeatherDisplay:10.37,2013-01-30 14:30:00,
2013-01-30 09:35:00,74.8,63.1,30.15,SSE,158,12.7,12.7,67,0.00,CLR,,0.00,WeatherDisplay:10.37,2013-01-30 14:35:00,
2013-01-30 09:41:00,74.7,63.0,30.15,SE,135,11.5,11.5,67,0.00,CLR,,0.00,WeatherDisplay:10.37,2013-01-30 14:41:00,
2013-01-30 09:46:00,74.7,63.0,30.15,SSE,158,9.2,9.2,67,0.00,CLR,,0.00,WeatherDisplay:10.37,2013-01-30 14:46:00,
2013-01-30 09:51:00,74.7,63.0,30.15,SSE,158,10.4,10.4,67,0.00,CLR,,0.00,WeatherDisplay:10.37,2013-01-30 14:51:00,
2013-01-30 09:56:00,74.8,63.6,30.15,East,90,10.4,10.4,68,0.00,CLR,,0.00,WeatherDisplay:10.37,2013-01-30 14:56:00,
2013-01-30 10:01:00,74.8,63.6,30.15,SSE,158,17.3,17.3,68,0.00,CLR,,0.00,WeatherDisplay:10.37,2013-01-30 15:01:00,
2013-01-30 10:07:00,75.0,63.7,30.15,South,180,12.7,12.7,68,0.00,CLR,,0.00,WeatherDisplay:10.37,2013-01-30 15:07:00,
2013-01-30 10:12:00,75.2,63.5,30.15,South,180,12.7,12.7,67,0.00,CLR,,0.00,WeatherDisplay:10.37,2013-01-30 15:12:00,
2013-01-30 10:17:00,75.2,63.5,30.15,ESE,112,10.4,10.4,67,0.00,CLR,,0.00,WeatherDisplay:10.37,2013-01-30 15:17:00,
2013-01-30 10:22:00,75.6,63.8,30.15,South,180,8.1,8.1,67,0.00,CLR,,0.00,WeatherDisplay:10.37,2013-01-30 15:22:00,
2013-01-30 10:27:00,75.6,63.8,30.15,South,180,5.8,7.1,67,0.00,CLR,,0.00,WeatherDisplay:10.37,2013-01-30 15:27:00,
2013-01-30 10:32:00,75.6,63.8,30.12,SE,135,12.7,12.7,67,0.00,CLR,,0.00,WeatherDisplay:10.37,2013-01-30 15:32:00,
2013-01-30 10:37:00,75.7,64.0,30.12,ESE,112,13.2,13.2,67,0.00,CLR,,0.00,WeatherDisplay:10.37,2013-01-30 15:37:00,
2013-01-30 10:42:00,75.7,64.0,30.12,SSW,202,10.4,10.4,67,0.00,CLR,,0.00,WeatherDisplay:10.37,2013-01-30 15:42:00,
2013-01-30 10:48:00,75.9,64.2,30.09,SSW,202,8.1,8.1,67,0.00,CLR,,0.00,WeatherDisplay:10.37,2013-01-30 15:48:00,
2013-01-30 10:53:00,76.1,64.3,30.09,South,180,10.9,10.9,67,0.00,CLR,,0.00,WeatherDisplay:10.37,2013-01-30 15:53:00,
2013-01-30 10:58:00,76.1,64.3,30.09,SE,135,8.1,8.1,67,0.00,CLR,,0.00,WeatherDisplay:10.37,2013-01-30 15:58:00,
2013-01-30 11:03:00,76.3,64.1,30.09,SE,135,9.8,9.8,66,0.00,CLR,,0.00,WeatherDisplay:10.37,2013-01-30 16:03:00,
2013-01-30 11:08:00,76.3,64.1,30.09,South,180,11.5,11.5,66,0.00,CLR,,0.00,WeatherDisplay:10.37,2013-01-30 16:08:00,
2013-01-30 11:13:00,76.5,64.3,30.09,South,180,10.4,10.4,66,0.00,CLR,,0.00,WeatherDisplay:10.37,2013-01-30 16:13:00,
2013-01-30 11:18:00,76.3,64.1,30.09,South,180,11.5,11.5,66,0.00,CLR,,0.00,WeatherDisplay:10.37,2013-01-30 16:18:00,
2013-01-30 11:23:00,76.3,64.1,30.09,South,180,12.5,12.5,66,0.00,CLR,,0.00,WeatherDisplay:10.37,2013-01-30 16:23:00,
2013-01-30 11:29:00,76.5,64.3,30.09,South,180,11.5,11.5,66,0.00,CLR,,0.00,WeatherDisplay:10.37,2013-01-30 16:29:00,
2013-01-30 11:34:00,76.5,64.3,30.09,North,0,6.2,6.2,66,0.00,CLR,,0.00,WeatherDisplay:10.37,2013-01-30 16:34:00,
2013-01-30 11:39:00,76.8,64.6,30.09,NE,45,9.4,9.4,66,0.00,CLR,,0.00,WeatherDisplay:10.37,2013-01-30 16:39:00,
2013-01-30 11:45:00,77.0,64.8,30.09,South,180,12.7,12.7,66,0.00,CLR,,0.00,WeatherDisplay:10.37,2013-01-30 16:45:00,
2013-01-30 11:50:00,77.0,64.8,30.09,South,180,10.4,10.4,66,0.00,CLR,,0.00,WeatherDisplay:10.37,2013-01-30 16:50:00,
2013-01-30 11:55:00,76.8,65.0,30.09,SSE,158,11.5,11.5,67,0.00,CLR,,0.00,WeatherDisplay:10.37,2013-01-30 16:55:00,
2013-01-30 12:00:00,76.6,64.9,30.09,SE,135,12.7,12.7,67,0.00,CLR,,0.00,WeatherDisplay:10.37,2013-01-30 17:00:00,
2013-01-30 12:05:00,77.0,64.8,30.09,SE,135,12.5,12.5,66,0.00,CLR,,0.00,WeatherDisplay:10.37,2013-01-30 17:05:00,
2013-01-30 12:10:00,77.3,65.1,30.09,SSE,148,7.0,13.0,66,0.00,CLR,,0.00,WeatherDisplay:10.37,2013-01-30 17:10:00,
2013-01-30 12:15:00,77.4,65.1,30.09,South,180,15.0,15.0,66,0.00,CLR,,0.00,WeatherDisplay:10.37,2013-01-30 17:15:00,
2013-01-30 12:21:00,77.5,65.3,30.06,South,180,11.5,11.5,66,0.00,CLR,,0.00,WeatherDisplay:10.37,2013-01-30 17:21:00,
2013-01-30 12:26:00,77.5,65.3,30.06,SE,135,13.8,13.8,66,0.00,CLR,,0.00,WeatherDisplay:10.37,2013-01-30 17:26:00,
2013-01-30 12:31:00,77.7,65.9,30.06,ESE,112,12.7,12.7,67,0.00,CLR,,0.00,WeatherDisplay:10.37,2013-01-30 17:31:00,
2013-01-30 12:36:00,77.7,65.5,30.06,South,180,12.7,12.7,66,0.00,CLR,,0.00,WeatherDisplay:10.37,2013-01-30 17:36:00,
2013-01-30 12:41:00,77.9,66.1,30.06,NE,45,15.4,15.4,67,0.00,CLR,,0.00,WeatherDisplay:10.37,2013-01-30 17:41:00,
2013-01-30 12:46:00,77.9,66.1,30.03,South,180,9.2,9.2,67,0.00,CLR,,0.00,WeatherDisplay:10.37,2013-01-30 17:46:00,
2013-01-30 12:51:00,77.9,66.1,30.03,SSE,158,15.0,15.0,67,0.00,CLR,,0.00,WeatherDisplay:10.37,2013-01-30 17:51:00,
2013-01-30 12:57:00,77.9,66.1,30.03,SSW,202,10.4,10.4,67,0.00,CLR,,0.00,WeatherDisplay:10.37,2013-01-30 17:57:00,
2013-01-30 13:02:00,78.1,66.2,30.03,South,180,12.7,12.7,67,0.00,CLR,,0.00,WeatherDisplay:10.37,2013-01-30 18:02:00,
2013-01-30 13:07:00,77.9,66.1,30.03,SSE,158,12.5,12.5,67,0.00,CLR,,0.00,WeatherDisplay:10.37,2013-01-30 18:07:00,
2013-01-30 13:12:00,78.1,66.2,30.03,SW,225,7.1,7.1,67,0.00,CLR,,0.00,WeatherDisplay:10.37,2013-01-30 18:12:00,
2013-01-30 13:17:00,78.4,66.6,30.03,East,90,9.8,9.8,67,0.00,CLR,,0.00,WeatherDisplay:10.37,2013-01-30 18:17:00,
2013-01-30 13:22:00,78.4,66.6,30.03,South,180,8.1,8.1,67,0.00,CLR,,0.00,WeatherDisplay:10.37,2013-01-30 18:22:00,
2013-01-30 13:28:00,78.3,66.0,30.03,SSE,158,13.7,13.7,66,0.00,CLR,,0.00,WeatherDisplay:10.37,2013-01-30 18:28:00,
2013-01-30 13:33:00,78.6,66.7,30.03,SE,135,10.4,10.4,67,0.00,CLR,,0.00,WeatherDisplay:10.37,2013-01-30 18:33:00,
2013-01-30 13:38:00,78.6,66.3,30.03,South,180,9.8,9.8,66,0.00,CLR,,0.00,WeatherDisplay:10.37,2013-01-30 18:38:00,
2013-01-30 13:43:00,78.6,66.3,30.03,South,180,10.4,10.4,66,0.00,CLR,,0.00,WeatherDisplay:10.37,2013-01-30 18:43:00,
2013-01-30 13:48:00,78.4,66.6,30.03,South,180,11.5,11.5,67,0.00,CLR,,0.00,WeatherDisplay:10.37,2013-01-30 18:48:00,
2013-01-30 13:53:00,78.6,66.3,30.03,SW,225,8.1,8.1,66,0.00,CLR,,0.00,WeatherDisplay:10.37,2013-01-30 18:53:00,
2013-01-30 13:58:00,78.8,66.5,30.03,South,180,10.4,10.4,66,0.00,CLR,,0.00,WeatherDisplay:10.37,2013-01-30 18:58:00,
2013-01-30 14:03:00,78.8,66.5,30.03,South,180,11.5,11.5,66,0.00,CLR,,0.00,WeatherDisplay:10.37,2013-01-30 19:03:00,
2013-01-30 14:09:00,79.0,66.6,30.03,South,180,8.1,8.1,66,0.00,CLR,,0.00,WeatherDisplay:10.37,2013-01-30 19:09:00,
2013-01-30 14:14:00,79.2,66.8,30.03,South,180,9.2,9.2,66,0.00,CLR,,0.00,WeatherDisplay:10.37,2013-01-30 19:14:00,
2013-01-30 14:19:00,79.5,67.2,30.03,WSW,248,13.2,13.2,66,0.00,CLR,,0.00,WeatherDisplay:10.37,2013-01-30 19:19:00,
2013-01-30 14:24:00,79.5,67.2,30.03,South,180,13.8,13.8,66,0.00,CLR,,0.00,WeatherDisplay:10.37,2013-01-30 19:24:00,
2013-01-30 14:29:00,79.5,67.2,30.03,SE,135,12.7,12.7,66,0.00,CLR,,0.00,WeatherDisplay:10.37,2013-01-30 19:29:00,
2013-01-30 14:34:00,79.3,67.0,30.03,South,180,10.9,10.9,66,0.00,CLR,,0.00,WeatherDisplay:10.37,2013-01-30 19:34:00,
2013-01-30 14:39:00,79.7,67.3,30.03,SSW,202,11.4,11.4,66,0.00,CLR,,0.00,WeatherDisplay:10.37,2013-01-30 19:39:00,
2013-01-30 14:45:00,79.7,67.3,30.03,SW,225,9.2,9.2,66,0.00,CLR,,0.00,WeatherDisplay:10.37,2013-01-30 19:45:00,
2013-01-30 14:50:00,79.7,67.3,30.03,SE,135,12.7,12.7,66,0.00,CLR,,0.00,WeatherDisplay:10.37,2013-01-30 19:50:00,
2013-01-30 14:55:00,79.9,67.1,30.03,SSE,158,10.4,10.4,65,0.00,CLR,,0.00,WeatherDisplay:10.37,2013-01-30 19:55:00,
2013-01-30 15:00:00,79.9,67.5,30.03,South,180,10.4,10.4,66,0.00,CLR,,0.00,WeatherDisplay:10.37,2013-01-30 20:00:00,
2013-01-30 15:05:00,80.1,67.2,30.03,East,90,11.5,11.5,65,0.00,CLR,,0.00,WeatherDisplay:10.37,2013-01-30 20:05:00,
2013-01-30 15:10:00,80.2,67.8,30.03,South,169,6.0,12.0,66,0.00,CLR,,0.00,WeatherDisplay:10.37,2013-01-30 20:10:00,
2013-01-30 15:15:00,80.1,67.2,30.03,SSE,158,15.0,15.0,65,0.00,CLR,,0.00,WeatherDisplay:10.37,2013-01-30 20:15:00,
2013-01-30 15:20:00,80.2,67.4,30.03,South,180,6.0,6.0,65,0.00,CLR,,0.00,WeatherDisplay:10.37,2013-01-30 20:20:00,
2013-01-30 15:26:00,80.2,67.4,30.03,South,180,9.2,9.2,65,0.00,CLR,,0.00,WeatherDisplay:10.37,2013-01-30 20:26:00,
2013-01-30 15:31:00,80.4,67.6,30.03,SSE,158,9.2,9.2,65,0.00,CLR,,0.00,WeatherDisplay:10.37,2013-01-30 20:31:00,
2013-01-30 15:36:00,80.4,67.6,30.03,South,180,8.5,8.5,65,0.00,CLR,,0.00,WeatherDisplay:10.37,2013-01-30 20:36:00,
2013-01-30 15:41:00,80.6,67.3,30.03,South,180,9.2,9.2,64,0.00,CLR,,0.00,WeatherDisplay:10.37,2013-01-30 20:41:00,
2013-01-30 15:46:00,80.4,67.1,30.03,South,180,12.7,12.7,64,0.00,CLR,,0.00,WeatherDisplay:10.37,2013-01-30 20:46:00,
2013-01-30 15:51:00,80.6,67.3,30.03,South,180,11.5,11.5,64,0.00,CLR,,0.00,WeatherDisplay:10.37,2013-01-30 20:51:00,
2013-01-30 15:56:00,80.8,67.0,30.03,SSE,158,4.6,4.6,63,0.00,CLR,,0.00,WeatherDisplay:10.37,2013-01-30 20:56:00,
2013-01-30 16:01:00,80.4,67.1,30.03,West,270,10.4,10.4,64,0.00,CLR,,0.00,WeatherDisplay:10.37,2013-01-30 21:01:00,
2013-01-30 16:06:00,80.2,67.0,30.03,South,180,10.4,10.4,64,0.01,RA,,0.01,WeatherDisplay:10.37,2013-01-30 21:06:00,
2013-01-30 16:11:00,79.9,66.6,30.03,South,180,8.1,8.1,64,0.01,RA,,0.01,WeatherDisplay:10.37,2013-01-30 21:11:00,
2013-01-30 16:17:00,79.7,66.4,30.03,SW,225,11.5,11.5,64,0.01,,,0.01,WeatherDisplay:10.37,2013-01-30 21:17:00,
2013-01-30 16:22:00,79.7,66.4,30.03,South,180,6.9,6.9,64,0.01,CLR,,0.01,WeatherDisplay:10.37,2013-01-30 21:22:00,
2013-01-30 16:27:00,79.7,66.4,30.03,South,180,10.4,10.4,64,0.03,RA,,0.03,WeatherDisplay:10.37,2013-01-30 21:27:00,
2013-01-30 16:32:00,79.5,66.3,30.03,South,180,8.1,8.1,64,0.03,RA,,0.03,WeatherDisplay:10.37,2013-01-30 21:32:00,
2013-01-30 16:37:00,80.1,66.8,30.03,SSW,202,9.2,9.2,64,0.03,,,0.03,WeatherDisplay:10.37,2013-01-30 21:37:00,
2013-01-30 16:42:00,80.2,66.5,30.03,SW,225,4.6,4.6,63,0.03,CLR,,0.03,WeatherDisplay:10.37,2013-01-30 21:42:00,
2013-01-30 16:48:00,79.9,66.6,30.06,South,180,7.4,7.4,64,0.03,CLR,,0.03,WeatherDisplay:10.37,2013-01-30 21:48:00,
2013-01-30 16:53:00,79.3,66.1,30.06,SSE,158,5.8,5.8,64,0.03,CLR,,0.03,WeatherDisplay:10.37,2013-01-30 21:53:00,
2013-01-30 16:58:00,79.5,66.3,30.06,SSE,158,9.8,9.8,64,0.03,CLR,,0.03,WeatherDisplay:10.37,2013-01-30 21:58:00,
2013-01-30 17:03:00,79.5,66.7,30.06,South,180,8.1,8.1,65,0.03,CLR,,0.03,WeatherDisplay:10.37,2013-01-30 22:03:00,
2013-01-30 17:08:00,79.7,66.9,30.06,SSW,202,9.2,9.2,65,0.02,CLR,,0.03,WeatherDisplay:10.37,2013-01-30 22:08:00,
2013-01-30 17:13:00,79.3,66.5,30.06,SSW,202,8.1,8.1,65,0.02,CLR,,0.03,WeatherDisplay:10.37,2013-01-30 22:13:00,
2013-01-30 17:19:00,79.2,66.4,30.03,SSW,202,6.9,6.9,65,0.02,CLR,,0.03,WeatherDisplay:10.37,2013-01-30 22:19:00,
2013-01-30 17:24:00,78.8,66.0,30.03,South,180,5.8,5.8,65,0.02,CLR,,0.03,WeatherDisplay:10.37,2013-01-30 22:24:00,
2013-01-30 17:29:00,79.0,66.6,30.03,South,180,8.1,8.1,66,0.00,CLR,,0.03,WeatherDisplay:10.37,2013-01-30 22:29:00,
2013-01-30 17:34:00,79.0,66.6,30.03,South,180,4.6,4.6,66,0.00,CLR,,0.03,WeatherDisplay:10.37,2013-01-30 22:34:00,
2013-01-30 17:39:00,78.8,66.5,30.03,ESE,112,4.6,4.6,66,0.00,CLR,,0.03,WeatherDisplay:10.37,2013-01-30 22:39:00,
2013-01-30 17:44:00,78.8,66.5,30.03,South,180,16.8,16.8,66,0.00,CLR,,0.03,WeatherDisplay:10.37,2013-01-30 22:44:00,
2013-01-30 17:49:00,78.3,66.0,30.03,SE,135,3.5,3.5,66,0.00,CLR,,0.03,WeatherDisplay:10.37,2013-01-30 22:49:00,
2013-01-30 17:54:00,78.3,66.4,30.03,SE,135,10.2,10.2,67,0.00,CLR,,0.03,WeatherDisplay:10.37,2013-01-30 22:54:00,
2013-01-30 18:00:00,78.3,66.4,30.03,SSW,202,6.0,6.0,67,0.00,CLR,,0.03,WeatherDisplay:10.37,2013-01-30 23:00:00,
2013-01-30 18:05:00,78.2,66.4,30.03,South,172,5.0,10.0,67,0.00,RA,,0.03,WeatherDisplay:10.37,2013-01-30 23:05:00,
2013-01-30 18:10:00,78.3,66.4,30.03,SSW,202,10.2,10.2,67,0.00,CLR,,0.03,WeatherDisplay:10.37,2013-01-30 23:10:00,
2013-01-30 18:15:00,77.9,66.1,30.03,South,180,8.1,8.1,67,0.00,CLR,,0.03,WeatherDisplay:10.37,2013-01-30 23:15:00,
2013-01-30 18:20:00,77.7,65.9,30.03,SSW,202,8.1,8.1,67,0.00,CLR,,0.03,WeatherDisplay:10.37,2013-01-30 23:20:00,
2013-01-30 18:25:00,77.5,66.1,30.03,South,180,5.8,5.8,68,0.00,CLR,,0.03,WeatherDisplay:10.37,2013-01-30 23:25:00,
2013-01-30 18:31:00,77.5,66.1,30.03,West,270,5.8,5.8,68,0.00,CLR,,0.03,WeatherDisplay:10.37,2013-01-30 23:31:00,
2013-01-30 18:36:00,77.4,66.0,30.03,West,270,6.9,6.9,68,0.00,CLR,,0.03,WeatherDisplay:10.37,2013-01-30 23:36:00,
2013-01-30 18:41:00,77.5,66.1,30.03,SSW,202,5.8,5.8,68,0.00,CLR,,0.03,WeatherDisplay:10.37,2013-01-30 23:41:00,
2013-01-30 18:46:00,77.4,66.0,30.03,SW,225,5.8,5.8,68,0.00,CLR,,0.03,WeatherDisplay:10.37,2013-01-30 23:46:00,
2013-01-30 18:51:00,77.0,65.6,30.03,South,180,4.6,4.6,68,0.00,CLR,,0.03,WeatherDisplay:10.37,2013-01-30 23:51:00,
2013-01-30 18:57:00,77.0,65.6,30.03,SW,225,4.6,4.6,68,0.00,CLR,,0.03,WeatherDisplay:10.37,2013-01-30 23:57:00,
2013-01-30 19:02:00,77.0,65.6,30.03,SSW,202,4.3,4.3,68,0.00,CLR,,0.03,WeatherDisplay:10.37,2013-01-31 00:02:00,
2013-01-30 19:07:00,76.8,65.5,30.03,South,180,4.3,4.3,68,0.00,CLR,,0.03,WeatherDisplay:10.37,2013-01-31 00:07:00,
2013-01-30 19:12:00,76.8,65.5,30.03,SSE,158,4.7,4.7,68,0.00,CLR,,0.03,WeatherDisplay:10.37,2013-01-31 00:12:00,
2013-01-30 19:17:00,76.8,65.5,30.03,SSW,202,4.6,4.6,68,0.00,CLR,,0.03,WeatherDisplay:10.37,2013-01-31 00:17:00,
2013-01-30 19:22:00,77.0,65.6,30.03,South,180,6.9,6.9,68,0.00,CLR,,0.03,WeatherDisplay:10.37,2013-01-31 00:22:00,
2013-01-30 19:27:00,77.0,65.6,30.03,SSW,202,6.2,6.2,68,0.00,CLR,,0.03,WeatherDisplay:10.37,2013-01-31 00:27:00,
2013-01-30 19:32:00,76.6,65.3,30.03,SSW,202,7.1,7.1,68,0.00,CLR,,0.03,WeatherDisplay:10.37,2013-01-31 00:32:00,
2013-01-30 19:37:00,76.6,65.3,30.03,SSE,158,4.6,4.6,68,0.00,CLR,,0.03,WeatherDisplay:10.37,2013-01-31 00:37:00,
2013-01-30 19:42:00,76.5,65.1,30.03,SSW,202,4.0,4.0,68,0.00,CLR,,0.03,WeatherDisplay:10.37,2013-01-31 00:42:00,
2013-01-30 19:47:00,76.3,64.9,30.03,South,180,4.3,4.3,68,0.00,CLR,,0.03,WeatherDisplay:10.37,2013-01-31 00:47:00,
2013-01-30 19:52:00,76.5,65.1,30.03,SSW,202,5.8,5.8,68,0.00,CLR,,0.03,WeatherDisplay:10.37,2013-01-31 00:52:00,
2013-01-30 19:57:00,76.3,64.9,30.03,South,180,3.8,3.8,68,0.00,CLR,,0.03,WeatherDisplay:10.37,2013-01-31 00:57:00,
2013-01-30 20:02:00,76.3,64.9,30.03,SSE,158,4.6,4.6,68,0.00,CLR,,0.03,WeatherDisplay:10.37,2013-01-31 01:02:00,
2013-01-30 20:08:00,76.1,65.2,30.03,SSW,202,5.8,5.8,69,0.00,CLR,,0.03,WeatherDisplay:10.37,2013-01-31 01:08:00,
2013-01-30 20:13:00,76.1,65.2,30.03,SW,225,7.4,7.4,69,0.00,CLR,,0.03,WeatherDisplay:10.37,2013-01-31 01:13:00,
2013-01-30 20:18:00,76.1,65.2,30.03,South,180,3.5,3.5,69,0.00,CLR,,0.03,WeatherDisplay:10.37,2013-01-31 01:18:00,
2013-01-30 20:23:00,75.9,65.0,30.03,SSW,202,3.6,3.6,69,0.00,CLR,,0.03,WeatherDisplay:10.37,2013-01-31 01:23:00,
2013-01-30 20:28:00,75.9,65.0,30.03,South,180,0.0,0.0,69,0.00,CLR,,0.03,WeatherDisplay:10.37,2013-01-31 01:28:00,
2013-01-30 20:33:00,75.6,65.1,30.03,WSW,248,3.5,3.5,70,0.00,CLR,,0.03,WeatherDisplay:10.37,2013-01-31 01:33:00,
2013-01-30 20:38:00,75.6,65.1,30.03,SW,225,3.1,0.0,70,0.00,CLR,,0.03,WeatherDisplay:10.37,2013-01-31 01:38:00,
2013-01-30 20:44:00,75.4,64.9,30.03,South,180,2.3,0.0,70,0.00,CLR,,0.03,WeatherDisplay:10.37,2013-01-31 01:44:00,
2013-01-30 20:49:00,75.6,65.1,30.03,South,180,4.0,4.0,70,0.00,CLR,,0.03,WeatherDisplay:10.37,2013-01-31 01:49:00,
2013-01-30 20:54:00,75.7,65.3,30.03,SE,135,4.6,4.6,70,0.00,CLR,,0.03,WeatherDisplay:10.37,2013-01-31 01:54:00,
2013-01-30 20:59:00,75.9,65.4,30.03,WSW,248,8.1,8.1,70,0.00,CLR,,0.03,WeatherDisplay:10.37,2013-01-31 01:59:00,
2013-01-30 21:04:00,75.9,65.4,30.03,SSW,202,3.5,3.5,70,0.00,CLR,,0.03,WeatherDisplay:10.37,2013-01-31 02:04:00,
2013-01-30 21:09:00,75.6,65.1,30.03,SSE,158,4.6,4.6,70,0.00,CLR,,0.03,WeatherDisplay:10.37,2013-01-31 02:09:00,
2013-01-30 21:15:00,75.4,64.9,30.03,South,180,8.1,8.1,70,0.00,CLR,,0.03,WeatherDisplay:10.37,2013-01-31 02:15:00,
2013-01-30 21:20:00,75.4,64.9,30.00,South,180,2.3,2.4,70,0.00,CLR,,0.03,WeatherDisplay:10.37,2013-01-31 02:20:00,
2013-01-30 21:25:00,75.2,64.7,30.00,South,180,4.6,4.6,70,0.00,CLR,,0.03,WeatherDisplay:10.37,2013-01-31 02:25:00,
2013-01-30 21:30:00,75.4,64.9,30.00,SSW,202,6.9,6.9,70,0.00,CLR,,0.03,WeatherDisplay:10.37,2013-01-31 02:30:00,
2013-01-30 21:35:00,75.4,64.9,30.03,South,180,3.0,6.0,70,0.00,RA,,0.03,WeatherDisplay:10.37,2013-01-31 02:35:00,
2013-01-30 21:40:00,75.4,64.9,30.03,South,179,3.0,6.0,70,0.00,RA,,0.03,WeatherDisplay:10.37,2013-01-31 02:40:00,
2013-01-30 21:45:00,75.4,64.9,30.03,SW,225,6.9,6.9,70,0.00,CLR,,0.03,WeatherDisplay:10.37,2013-01-31 02:45:00,
2013-01-30 21:50:00,75.4,64.9,30.03,South,180,3.5,3.5,70,0.00,CLR,,0.03,WeatherDisplay:10.37,2013-01-31 02:50:00,
2013-01-30 21:56:00,75.2,64.7,30.03,SW,225,2.3,2.3,70,0.00,CLR,,0.03,WeatherDisplay:10.37,2013-01-31 02:56:00,
2013-01-30 22:01:00,75.2,65.1,30.00,South,180,6.0,6.0,71,0.00,CLR,,0.03,WeatherDisplay:10.37,2013-01-31 03:01:00,
2013-01-30 22:06:00,75.2,65.1,30.00,South,180,6.9,6.9,71,0.00,CLR,,0.03,WeatherDisplay:10.37,2013-01-31 03:06:00,
2013-01-30 22:11:00,75.2,65.1,30.00,South,180,5.8,5.8,71,0.00,CLR,,0.03,WeatherDisplay:10.37,2013-01-31 03:11:00,
2013-01-30 22:16:00,75.2,64.7,30.00,SW,225,5.8,5.8,70,0.00,CLR,,0.03,WeatherDisplay:10.37,2013-01-31 03:16:00,
2013-01-30 22:22:00,75.0,65.0,30.00,South,180,5.8,5.8,71,0.00,CLR,,0.03,WeatherDisplay:10.37,2013-01-31 03:22:00,
2013-01-30 22:27:00,75.0,65.0,30.00,South,180,8.1,8.1,71,0.00,CLR,,0.03,WeatherDisplay:10.37,2013-01-31 03:27:00,
2013-01-30 22:32:00,75.0,65.0,30.03,SSW,202,5.8,5.8,71,0.00,CLR,,0.03,WeatherDisplay:10.37,2013-01-31 03:32:00,
2013-01-30 22:37:00,75.0,65.0,30.03,SW,225,6.0,6.0,71,0.00,CLR,,0.03,WeatherDisplay:10.37,2013-01-31 03:37:00,
2013-01-30 22:42:00,75.0,65.4,30.03,SSE,158,8.1,8.1,72,0.00,CLR,,0.03,WeatherDisplay:10.37,2013-01-31 03:42:00,
2013-01-30 22:47:00,75.0,65.8,30.00,South,180,3.8,3.8,73,0.00,CLR,,0.03,WeatherDisplay:10.37,2013-01-31 03:47:00,
2013-01-30 22:52:00,74.8,65.6,30.00,South,180,7.4,7.4,73,0.00,CLR,,0.03,WeatherDisplay:10.37,2013-01-31 03:52:00,
2013-01-30 22:58:00,75.0,65.4,30.00,South,180,6.9,6.9,72,0.00,CLR,,0.03,WeatherDisplay:10.37,2013-01-31 03:58:00,
2013-01-30 23:03:00,75.0,65.4,30.03,SSW,202,5.8,5.8,72,0.00,CLR,,0.03,WeatherDisplay:10.37,2013-01-31 04:03:00,
2013-01-30 23:08:00,75.0,65.8,30.03,SSW,202,6.9,6.9,73,0.00,CLR,,0.03,WeatherDisplay:10.37,2013-01-31 04:08:00,
2013-01-30 23:13:00,75.0,65.4,30.03,SSE,158,6.0,6.0,72,0.00,CLR,,0.03,WeatherDisplay:10.37,2013-01-31 04:13:00,
2013-01-30 23:18:00,75.0,65.4,30.03,SSW,202,6.9,6.9,72,0.00,CLR,,0.03,WeatherDisplay:10.37,2013-01-31 04:18:00,
2013-01-30 23:24:00,75.0,65.4,30.03,South,180,5.8,5.8,72,0.00,CLR,,0.03,WeatherDisplay:10.37,2013-01-31 04:24:00,
2013-01-30 23:29:00,74.8,65.2,30.03,South,180,6.9,6.9,72,0.00,CLR,,0.03,WeatherDisplay:10.37,2013-01-31 04:29:00,
2013-01-30 23:34:00,75.0,65.4,30.03,South,180,10.7,10.7,72,0.00,CLR,,0.03,WeatherDisplay:10.37,2013-01-31 04:34:00,
2013-01-30 23:39:00,74.8,65.2,30.03,SW,225,5.8,5.8,72,0.00,CLR,,0.03,WeatherDisplay:10.37,2013-01-31 04:39:00,
2013-01-30 23:44:00,74.8,65.2,30.03,South,180,6.9,6.9,72,0.00,CLR,,0.03,WeatherDisplay:10.37,2013-01-31 04:44:00,
2013-01-30 23:49:00,75.0,65.4,30.03,South,180,8.7,8.7,72,0.00,CLR,,0.03,WeatherDisplay:10.37,2013-01-31 04:49:00,
2013-01-30 23:54:00,74.8,65.6,30.03,SSW,202,5.8,5.8,73,0.00,CLR,,0.03,WeatherDisplay:10.37,2013-01-31 04:54:00,
2013-01-30 23:59:00,74.8,65.2,30.03,South,180,8.1,8.1,72,0.00,CLR,,0.03,WeatherDisplay:10.37,2013-01-31 04:59:00,